Wind_Speed
19 15 13 13 9 38 60 71 81 91 92 87 82 80 74 66 69 60 74 74 85 79 69 64 58 53 49 46 44 41 39 36 33 31 29 25 23 22
24 16 6 6 40 62 73 80 87 89 85 82 79 74 69 64 63 61 61 74 83 72 70 62 57 52 47 44 42 40 39 36 33 31 28 26 23 21
24 29 20 30 56 71 78 82 85 82 79 78 74 71 69 67 57 66 64 71 77 74 67 62 56 51 47 44 41 39 38 37 35 31 28 26 24 22
22 21 41 58 69 74 77 78 77 76 76 75 70 61 71 59 66 72 74 77 78 74 66 62 57 52 48 43 40 39 38 37 35 33 30 27 26 24
23 51 53 63 68 70 71 70 70 70 68 65 64 59 64 55 61 56 80 71 77 72 67 62 58 53 49 44 42 40 38 36 35 33 31 29 27 25
51 54 55 60 62 62 64 64 63 63 62 60 58 60 63 61 48 70 77 67 79 72 68 65 61 56 51 47 44 41 38 36 35 32 30 29 27 25
56 56 55 56 57 58 57 57 57 56 56 51 49 54 54 51 54 77 76 67 75 71 68 67 63 60 56 52 48 44 41 38 35 33 30 27 24 22
53 52 52 51 50 51 53 52 53 53 49 43 44 60 53 64 72 73 74 71 70 70 68 64 61 58 54 52 49 46 43 41 39 36 33 30 27 25
48 50 50 48 47 47 49 48 49 47 43 39 41 48 54 55 54 69 64 62 65 65 65 62 61 60 56 53 51 48 46 43 40 38 36 34 32 29
48 48 46 46 45 44 40 43 43 42 40 37 36 41 38 56 53 64 69 60 60 61 63 61 57 54 54 53 51 49 47 44 41 40 39 37 35 33
47 45 45 42 42 41 38 37 37 35 36 36 35 34 33 53 53 63 63 63 60 60 60 55 52 51 50 51 49 48 48 46 44 42 41 39 38 37
45 43 40 38 37 36 34 32 29 28 28 33 36 35 37 39 50 60 57 48 60 54 55 51 51 50 50 50 50 48 48 46 45 44 44 42 42 42
40 39 39 37 34 33 33 31 32 27 24 29 35 33 42 42 49 50 47 44 56 50 49 51 50 49 49 47 47 48 47 47 46 46 45 45 46 46
37 35 34 34 32 34 33 30 28 22 21 29 26 33 34 50 48 45 45 45 41 50 52 52 50 47 45 45 47 47 46 47 47 48 48 47 48 48
35 33 33 34 35 35 29 23 28 25 26 29 29 27 29 36 43 48 46 40 40 46 49 52 51 49 48 47 48 53 50 50 51 51 50 49 49 49
30 30 30 30 31 29 21 20 24 27 29 25 29 34 30 31 37 48 50 44 46 46 46 46 48 47 46 49 51 52 54 56 55 55 55 54 53 52
25 23 24 24 23 22 21 16 15 29 27 28 29 26 31 31 31 46 53 48 50 47 47 47 45 46 50 48 50 52 55 56 54 58 58 58 58 58
31 25 18 16 16 18 14 9 4 7 12 18 19 23 21 27 33 37 40 51 53 49 47 49 50 51 49 49 52 56 54 52 55 60 59 62 62 61
47 43 31 23 16 9 9 7 5 3 2 5 8 11 11 17 25 26 36 44 46 46 48 52 57 56 54 57 60 58 58 60 58 58 59 64 66 66
44 44 43 43 40 29 19 14 7 3 1 1 4 6 8 9 13 15 19 31 38 38 45 52 56 57 57 60 62 60 62 63 63 62 64 64 65 65
40 40 39 38 36 35 34 32 31 24 12 8 6 9 11 12 15 19 23 23 26 32 34 36 38 44 48 52 56 58 60 63 65 66 68 71 72 71
41 39 37 34 32 31 30 28 26 24 22 20 18 15 14 12 16 20 24 28 32 36 40 43 45 47 48 48 50 51 52 54 55 57 59 61 63 64
42 42 43 41 39 35 31 27 24 23 21 20 17 16 14 13 14 17 18 20 22 24 28 32 36 42 48 51 54 56 61 65 66 67 68 68 68 68
Wind_Direction
1 28 28 10 150 153 148 147 151 155 159 163 163 165 167 168 176 169 179 176 167 170 172 178 177 174 175 178 180 180 180 181 180 180 183 180 181 185
21 33 29 90 148 143 142 144 149 154 157 158 160 166 165 165 172 166 174 175 169 167 171 175 176 175 175 179 179 180 182 183 182 183 185 184 182 184
53 60 81 136 137 135 136 142 148 152 155 156 159 163 163 172 177 180 179 173 167 171 172 175 176 176 176 179 179 180 181 184 184 186 186 185 184 185
65 75 119 123 124 128 136 143 148 151 154 157 160 161 169 164 155 172 178 176 168 169 172 176 177 177 178 179 179 179 181 184 185 190 191 190 190 190
85 113 111 118 122 128 137 144 148 149 155 156 158 170 164 165 171 167 177 175 167 171 173 177 179 178 180 180 178 180 180 183 185 190 193 195 196 196
104 101 103 116 124 132 139 144 146 150 152 156 164 170 163 162 166 172 171 172 169 173 175 178 180 180 181 182 181 182 181 182 185 187 190 193 197 200
99 108 109 119 127 134 138 142 145 148 154 155 163 176 163 164 172 171 173 175 173 174 180 181 182 183 183 184 184 186 185 186 187 188 188 191 194 200
101 108 114 119 128 133 136 140 145 148 151 154 168 170 163 157 170 178 176 177 177 176 185 184 184 186 187 188 189 190 191 193 193 196 195 198 201 205
104 109 113 119 126 131 137 139 143 147 147 155 176 178 161 169 167 177 180 180 184 182 184 188 188 188 192 193 194 196 197 200 202 203 206 208 211 215
103 111 115 119 123 127 131 137 145 149 150 159 175 186 165 160 167 183 186 183 186 186 186 190 192 193 196 198 200 202 205 207 209 213 216 219 221 224
104 109 113 118 123 126 129 136 141 148 152 159 176 169 157 164 161 179 185 186 187 191 193 191 194 197 203 204 206 209 211 215 219 222 226 229 232 235
101 106 112 115 117 120 124 127 134 143 146 159 175 165 160 171 174 173 178 189 196 195 194 197 195 203 208 210 211 214 218 220 224 228 232 236 239 241
104 107 106 108 112 115 114 117 127 138 151 163 158 158 166 171 177 185 192 194 197 200 198 200 202 205 212 217 218 220 223 226 229 232 235 238 242 243
108 108 106 102 107 115 116 115 114 128 159 162 156 161 169 177 179 186 194 198 204 205 202 206 208 208 217 220 222 225 229 232 234 237 238 239 242 245
106 107 108 103 115 124 128 118 113 110 142 155 163 165 166 177 188 183 193 201 207 208 209 211 212 212 215 219 224 228 227 233 234 238 240 240 242 245
111 114 115 115 117 129 130 139 93 106 119 146 154 162 170 170 176 188 201 205 201 214 217 219 221 222 225 227 227 231 235 232 235 238 238 238 240 243
99 108 129 129 122 127 117 125 152 113 119 132 147 158 175 176 178 186 193 198 205 213 214 222 229 231 231 235 237 238 244 243 238 238 242 242 243 245
75 74 82 101 111 138 131 112 130 148 149 137 138 132 148 176 185 187 192 205 213 217 220 225 232 236 236 238 242 243 248 251 253 251 246 246 247 250
73 73 79 82 86 109 118 119 100 104 96 196 159 151 153 163 182 185 201 202 207 215 223 228 234 236 238 240 248 247 250 252 254 255 254 258 259 259
73 73 71 70 72 73 69 60 29 352 23 249 235 215 205 203 209 203 201 206 212 216 220 226 228 233 235 240 244 246 250 248 252 254 256 256 257 258
69 70 70 72 71 70 64 61 59 53 33 8 280 261 256 246 244 238 238 235 232 229 226 225 227 230 234 236 237 239 242 245 246 248 249 250 252 254
64 66 68 69 68 67 67 63 54 51 52 47 35 16 357 327 302 285 276 268 261 258 252 252 247 245 246 245 245 246 248 247 247 246 246 247 248 249
59 60 61 61 60 63 63 62 58 48 37 31 20 10 357 342 325 315 308 304 299 297 292 290 289 287 282 277 269 265 258 254 253 253 254 253 253 253
Height
5406 5398 5390 5385 5381 5387 5398 5415 5438 5464 5491 5520 5545 5568 5589 5608 5627 5643 5658 5670 5685 5702 5724 5741 5752 5764 5775 5786 5796 5804 5811 5818 5824 5830 5836 5840 5845 5849
5408 5399 5392 5387 5390 5398 5413 5433 5458 5484 5510 5534 5555 5578 5598 5612 5630 5646 5661 5675 5688 5706 5723 5739 5753 5765 5776 5788 5796 5803 5810 5818 5824 5830 5835 5840 5844 5848
5414 5406 5403 5400 5405 5418 5436 5458 5482 5505 5526 5545 5567 5585 5600 5618 5630 5646 5660 5675 5689 5708 5724 5740 5754 5766 5777 5787 5795 5802 5810 5817 5823 5829 5834 5839 5843 5847
5426 5420 5417 5422 5430 5444 5462 5483 5502 5522 5540 5556 5573 5590 5606 5621 5637 5652 5662 5677 5692 5710 5724 5741 5754 5766 5778 5786 5794 5801 5809 5815 5821 5827 5832 5836 5841 5845
5438 5441 5441 5446 5456 5470 5488 5504 5521 5538 5557 5574 5585 5597 5610 5625 5640 5654 5667 5680 5695 5713 5725 5740 5754 5765 5776 5785 5792 5800 5807 5813 5818 5824 5830 5834 5839 5844
5461 5462 5462 5471 5483 5495 5509 5522 5536 5552 5566 5580 5594 5603 5617 5631 5643 5655 5667 5682 5697 5710 5723 5737 5750 5761 5772 5782 5790 5798 5804 5810 5816 5822 5828 5833 5837 5842
5478 5481 5489 5497 5506 5517 5527 5539 5553 5565 5577 5588 5599 5610 5624 5636 5648 5659 5672 5684 5697 5711 5724 5734 5744 5753 5765 5777 5786 5794 5801 5808 5814 5820 5826 5831 5835 5839
5499 5503 5509 5518 5527 5535 5545 5555 5565 5576 5588 5598 5607 5618 5629 5640 5652 5665 5678 5688 5698 5711 5724 5734 5745 5757 5768 5776 5784 5791 5798 5806 5811 5817 5823 5828 5833 5836
5518 5522 5529 5537 5545 5552 5561 5569 5578 5588 5596 5605 5614 5624 5637 5650 5660 5671 5682 5691 5701 5711 5724 5736 5745 5753 5764 5772 5780 5787 5795 5802 5808 5814 5820 5824 5828 5832
5537 5541 5547 5554 5561 5568 5575 5583 5591 5600 5607 5615 5623 5632 5643 5654 5664 5672 5684 5698 5709 5719 5725 5733 5745 5756 5763 5771 5778 5785 5793 5800 5805 5810 5815 5820 5824 5828
5554 5559 5564 5570 5575 5581 5588 5595 5602 5610 5617 5625 5631 5640 5651 5661 5671 5681 5691 5699 5709 5718 5728 5739 5746 5754 5763 5770 5777 5784 5791 5797 5802 5807 5812 5817 5820 5823
5568 5574 5578 5583 5589 5594 5600 5607 5612 5619 5626 5633 5639 5647 5655 5665 5674 5685 5696 5705 5712 5722 5730 5739 5745 5754 5759 5767 5774 5781 5787 5792 5798 5803 5808 5812 5814 5816
5582 5587 5590 5595 5601 5605 5611 5616 5624 5629 5633 5638 5645 5653 5661 5668 5678 5690 5699 5708 5715 5722 5732 5738 5744 5751 5760 5768 5773 5778 5783 5788 5793 5797 5802 5805 5806 5808
5595 5599 5601 5606 5610 5615 5621 5626 5630 5633 5640 5645 5651 5658 5666 5675 5683 5691 5700 5709 5716 5723 5729 5736 5742 5750 5758 5764 5768 5773 5779 5783 5787 5790 5794 5796 5797 5799
5605 5609 5612 5615 5620 5626 5630 5631 5636 5639 5643 5650 5657 5663 5671 5678 5686 5694 5700 5707 5715 5722 5728 5734 5739 5745 5750 5755 5760 5765 5770 5773 5777 5780 5783 5786 5787 5789
5614 5617 5621 5624 5628 5632 5636 5638 5642 5645 5650 5656 5662 5667 5673 5679 5684 5692 5701 5707 5714 5719 5725 5730 5736 5740 5744 5747 5753 5756 5760 5763 5766 5769 5771 5774 5776 5777
5626 5628 5630 5632 5636 5639 5642 5644 5648 5649 5654 5658 5664 5669 5674 5680 5686 5692 5698 5703 5711 5717 5723 5727 5731 5735 5739 5741 5745 5748 5751 5753 5755 5758 5761 5763 5764 5765
5635 5637 5639 5641 5642 5645 5647 5651 5654 5658 5662 5665 5668 5672 5677 5681 5686 5691 5696 5702 5708 5714 5717 5721 5724 5727 5729 5733 5735 5737 5738 5741 5744 5747 5749 5750 5751 5753
5649 5646 5647 5649 5650 5653 5654 5656 5660 5664 5667 5670 5673 5676 5680 5683 5688 5691 5695 5698 5702 5707 5710 5713 5716 5719 5720 5722 5724 5725 5726 5727 5729 5731 5733 5734 5735 5736
5659 5657 5658 5658 5659 5660 5662 5663 5665 5667 5670 5673 5677 5680 5683 5686 5689 5691 5693 5695 5697 5700 5701 5703 5705 5707 5709 5711 5711 5712 5712 5713 5713 5714 5715 5715 5716 5717
5670 5668 5667 5667 5668 5669 5669 5670 5672 5672 5675 5677 5680 5681 5683 5685 5688 5689 5691 5693 5694 5695 5695 5696 5696 5697 5697 5697 5698 5698 5697 5697 5697 5697 5697 5697 5698 5698
5677 5677 5677 5677 5677 5677 5677 5677 5677 5678 5679 5680 5681 5684 5685 5685 5685 5686 5686 5686 5686 5686 5687 5687 5687 5686 5686 5686 5685 5685 5684 5683 5682 5681 5680 5679 5680 5678
5687 5685 5685 5684 5682 5683 5684 5685 5685 5684 5684 5684 5687 5686 5687 5687 5686 5685 5684 5683 5680 5678 5676 5675 5673 5671 5670 5670 5669 5668 5667 5666 5665 5665 5664 5663 5661 5660